Fort Campbell, KY

9:16 PM CST on February 05, 2016 (GMT -0600)
Campbell Army Air Field

Weather History for KHOP - October, 2012

Change the Weather History Date:

Friday, October 26, 2012

  Actual Average Record
Temperature  
Mean Temperature 53 °F -  
Max Temperature 64 °F 67 °F 82 °F (2000)
Min Temperature 42 °F 45 °F 30 °F (2013)
Degree Days  
Heating Degree Days 12    
Growing Degree Days 3 (Base 50)    
Moisture  
Dew Point 45 °F    
Average Humidity 96    
Maximum Humidity 100    
Minimum Humidity 75    
Precipitation  
Precipitation 0.27 in - - ()
Sea Level Pressure  
Sea Level Pressure 30.16 in    
Wind  
Wind Speed 5 mph (NNE)    
Max Wind Speed 9 mph    
Max Gust Speed 18 mph    
Visibility 9 miles    
Events Rain    
Averages and records for this station are not official NWS values.
T = Trace of Precipitation, MM = Missing Value Source: NWS Daily Summary

Daily Weather History Graph

Daily Weather History Graph

Search for Another Location

Airport or City:

Trip Planner

Search our weather history database for the weather conditions in past years. The results will help you decide how hot, cold, wet, or windy it might be!

Date:

Astronomy

Oct. 26, 2012 Rise Set
Actual Time 7:08 AM CDT 5:59 PM CDT
Civil Twilight 6:41 AM CDT 6:25 PM CDT
Nautical Twilight 6:11 AM CDT 6:55 PM CDT
Astronomical Twilight 5:41 AM CDT 7:25 PM CDT
Moon 4:11 PM CDT (10/26) 4:08 AM CDT (10/26)
Length of Visible Light 11h 43m
Length of Day
10h 50m
Waxing Gibbous, 91% of the Moon is Illuminated
Oct 26
Waxing Gibbous
Oct 29
Full
Nov 6
Last Quarter
Nov 13
New
Nov 20
First Quarter

Hourly Weather History & Observations

Time (CDT) Temp. Windchill Dew Point Humidity Pressure Visibility Wind Dir Wind Speed Gust Speed Precip Events Conditions
12:55 AM 64.6 °F - 56.7 °F 75% 29.99 in 10.0 mi Calm Calm - N/A   Scattered Clouds
1:55 AM 61.5 °F - 56.8 °F 85% 29.99 in 10.0 mi Calm Calm - N/A   Partly Cloudy
2:55 AM 61.2 °F - 54.3 °F 78% 30.02 in 10.0 mi North 8.1 mph - N/A   Overcast
3:55 AM 52.5 °F - 46.9 °F 81% 30.07 in 10.0 mi Variable 4.6 mph - N/A   Scattered Clouds
4:17 AM 51.8 °F - 46.4 °F 82% 30.08 in 10.0 mi Variable 4.6 mph - N/A   Mostly Cloudy
4:55 AM 51.1 °F - 45.9 °F 82% 30.09 in 10.0 mi Variable 3.5 mph - N/A   Overcast
5:09 AM 50.0 °F - 44.6 °F 82% 30.10 in 10.0 mi Variable 4.6 mph - N/A   Overcast
5:55 AM 49.1 °F - 44.8 °F 85% 30.11 in 10.0 mi North 8.1 mph - N/A   Overcast
6:55 AM 49.3 °F - 44.8 °F 84% 30.11 in 10.0 mi Variable 5.8 mph - N/A   Overcast
7:12 AM 48.2 °F - 44.6 °F 87% 30.12 in 10.0 mi Variable 6.9 mph - N/A   Light Drizzle
7:23 AM 48.2 °F - 44.6 °F 87% 30.12 in 10.0 mi Variable 5.8 mph - N/A   Overcast
7:39 AM 48.2 °F - 44.6 °F 87% 30.14 in 10.0 mi Variable 5.8 mph - N/A   Light Drizzle
7:55 AM 47.8 °F - 45.7 °F 92% 30.14 in 10.0 mi Variable 4.6 mph - 0.00 in Rain Light Rain
8:22 AM 48.2 °F - 46.4 °F 93% 30.16 in 10.0 mi Calm Calm - N/A   Drizzle
8:40 AM 46.4 °F 42.9 °F 44.6 °F 93% 30.17 in 10.0 mi Variable 6.9 mph - N/A   Overcast
8:46 AM 46.4 °F 43.5 °F 44.6 °F 93% 30.17 in 10.0 mi Variable 5.8 mph - N/A   Overcast
8:55 AM 46.6 °F - 45.1 °F 95% 30.17 in 10.0 mi NNE 8.1 mph - 0.01 in   Overcast
9:47 AM 46.4 °F 42.4 °F 44.6 °F 93% 30.19 in 10.0 mi NNE 8.1 mph - N/A   Light Drizzle
9:55 AM 46.8 °F - 45.0 °F 93% 30.18 in 10.0 mi NNE 8.1 mph - 0.00 in Rain Light Rain
9:57 AM 46.4 °F 42.4 °F 44.6 °F 93% 30.18 in 9.0 mi NNE 8.1 mph - N/A Rain Light Rain
10:13 AM 46.4 °F 44.3 °F 46.4 °F 100% 30.19 in 5.0 mi Variable 4.6 mph - N/A Rain Light Rain
10:21 AM 46.4 °F 45.2 °F 46.4 °F 100% 30.19 in 6.0 mi Variable 3.5 mph - N/A Rain Rain
10:46 AM 46.4 °F 42.4 °F 46.4 °F 100% 30.18 in 9.0 mi NNE 8.1 mph - N/A Rain Light Rain
10:55 AM 46.2 °F 44.1 °F 46.0 °F 99% 30.19 in 7.0 mi NNE 4.6 mph - 0.11 in Rain Light Rain
11:29 AM 46.4 °F 44.3 °F 46.4 °F 100% 30.19 in 8.0 mi Variable 4.6 mph - N/A Rain Light Rain
11:31 AM 46.4 °F 44.3 °F 46.4 °F 100% 30.19 in 8.0 mi Variable 4.6 mph - N/A Rain Rain
11:46 AM 46.4 °F 45.2 °F 46.4 °F 100% 30.19 in 10.0 mi Variable 3.5 mph - N/A   Drizzle
11:55 AM 46.0 °F 43.9 °F 45.7 °F 99% 30.18 in 10.0 mi Variable 4.6 mph - 0.05 in   Light Drizzle
12:15 PM 46.4 °F 43.5 °F 44.6 °F 93% 30.18 in 10.0 mi Variable 5.8 mph - N/A   Light Drizzle
12:25 PM 46.4 °F 43.5 °F 46.4 °F 100% 30.18 in 10.0 mi Variable 5.8 mph - N/A   Overcast
12:48 PM 44.6 °F 43.1 °F 44.6 °F 100% 30.17 in 10.0 mi Variable 3.5 mph - N/A   Overcast
12:55 PM 45.5 °F 43.2 °F 45.0 °F 98% 30.17 in 10.0 mi Variable 4.6 mph - 0.00 in   Overcast
12:57 PM 44.6 °F 40.7 °F 44.6 °F 100% 30.17 in 10.0 mi Variable 6.9 mph - N/A   Overcast
1:00 PM 44.6 °F 40.7 °F 44.6 °F 100% 30.17 in 10.0 mi Variable 6.9 mph - N/A   Light Drizzle
1:55 PM 44.2 °F 41.8 °F 44.1 °F 99% 30.16 in 10.0 mi Variable 4.6 mph - 0.01 in   Light Drizzle
2:02 PM 44.6 °F 43.1 °F 44.6 °F 100% 30.16 in 5.0 mi Variable 3.5 mph - N/A   Heavy Drizzle
2:06 PM 44.6 °F 42.2 °F 44.6 °F 100% 30.16 in 4.0 mi Variable 4.6 mph - N/A   Drizzle
2:12 PM 44.6 °F 41.4 °F 44.6 °F 100% 30.16 in 5.0 mi Variable 5.8 mph - N/A   Drizzle
2:21 PM 44.6 °F 42.2 °F 42.8 °F 93% 30.16 in 7.0 mi Variable 4.6 mph - N/A   Drizzle
2:45 PM 44.6 °F 42.2 °F 44.6 °F 100% 30.16 in 10.0 mi Variable 4.6 mph - N/A   Overcast
2:47 PM 44.6 °F 41.4 °F 44.6 °F 100% 30.16 in 10.0 mi Variable 5.8 mph - N/A   Overcast
2:50 PM 44.6 °F 41.4 °F 44.6 °F 100% 30.16 in 10.0 mi Variable 5.8 mph - N/A   Light Drizzle
2:55 PM 44.1 °F 41.5 °F 43.9 °F 99% 30.15 in 9.0 mi Variable 4.6 mph - 0.01 in   Light Drizzle
3:07 PM 44.6 °F 40.7 °F 44.6 °F 100% 30.16 in 9.0 mi Variable 6.9 mph - N/A   Light Drizzle
3:35 PM 44.6 °F - 44.6 °F 100% 30.16 in 8.0 mi Calm Calm - N/A   Drizzle
3:37 PM 44.6 °F 41.4 °F 44.6 °F 100% 30.16 in 7.0 mi Variable 5.8 mph - N/A   Drizzle
3:48 PM 44.6 °F 41.4 °F 42.8 °F 93% 30.15 in 7.0 mi Variable 5.8 mph - N/A   Light Drizzle
3:52 PM 44.6 °F 43.1 °F 42.8 °F 93% 30.15 in 8.0 mi Variable 3.5 mph - N/A   Light Drizzle
3:55 PM 43.9 °F 41.3 °F 43.5 °F 99% 30.15 in 8.0 mi Variable 4.6 mph - 0.01 in   Light Drizzle
4:08 PM 44.6 °F 42.2 °F 44.6 °F 100% 30.15 in 10.0 mi Variable 4.6 mph - N/A   Overcast
4:17 PM 44.6 °F 40.7 °F 44.6 °F 100% 30.14 in 10.0 mi Variable 6.9 mph - N/A   Light Drizzle
4:38 PM 44.6 °F 41.4 °F 42.8 °F 93% 30.15 in 5.0 mi Variable 5.8 mph - N/A Rain Light Rain
4:55 PM 43.7 °F 42.1 °F 43.7 °F 100% 30.15 in 10.0 mi Variable 3.5 mph - 0.02 in   Light Drizzle
4:57 PM 44.6 °F - 44.6 °F 100% 30.15 in 10.0 mi Calm Calm - N/A   Overcast
5:00 PM 44.6 °F 42.2 °F 44.6 °F 100% 30.16 in 10.0 mi Variable 4.6 mph - N/A   Drizzle
5:24 PM 44.6 °F 43.1 °F 42.8 °F 93% 30.16 in 4.0 mi Variable 3.5 mph - N/A   Heavy Drizzle
5:43 PM 44.6 °F 43.1 °F 44.6 °F 100% 30.17 in 4.0 mi Variable 3.5 mph - N/A   Heavy Drizzle
5:46 PM 42.8 °F 38.6 °F 42.8 °F 100% 30.17 in 5.0 mi Variable 6.9 mph - N/A   Drizzle
5:49 PM 42.8 °F 41.1 °F 42.8 °F 100% 30.17 in 5.0 mi Variable 3.5 mph - N/A   Heavy Drizzle
5:55 PM 43.7 °F 41.1 °F 43.7 °F 100% 30.17 in 4.0 mi Variable 4.6 mph - 0.02 in   Drizzle
6:01 PM 44.6 °F 43.1 °F 44.6 °F 100% 30.17 in 4.0 mi Variable 3.5 mph - N/A   Heavy Drizzle
6:04 PM 44.6 °F 42.2 °F 44.6 °F 100% 30.17 in 5.0 mi Variable 4.6 mph - N/A   Drizzle
6:10 PM 44.6 °F 43.1 °F 44.6 °F 100% 30.17 in 6.0 mi Variable 3.5 mph - N/A   Drizzle
6:33 PM 42.8 °F 39.3 °F 42.8 °F 100% 30.17 in 10.0 mi Variable 5.8 mph - N/A   Light Drizzle
6:48 PM 42.8 °F 38.6 °F 42.8 °F 100% 30.17 in 10.0 mi Variable 6.9 mph - N/A   Light Drizzle
6:54 PM 42.8 °F 39.3 °F 42.8 °F 100% 30.17 in 10.0 mi Variable 5.8 mph - N/A   Overcast
6:55 PM 43.3 °F 40.7 °F 43.2 °F 99% 30.17 in 10.0 mi Variable 4.6 mph - 0.01 in   Overcast
7:05 PM 42.8 °F 37.5 °F 42.8 °F 100% 30.17 in 10.0 mi North 9.2 mph 18.4 mph N/A   Overcast
7:28 PM 42.8 °F 39.3 °F 42.8 °F 100% 30.18 in 10.0 mi Variable 5.8 mph - N/A   Overcast
7:51 PM 42.8 °F 39.3 °F 42.8 °F 100% 30.17 in 10.0 mi Variable 5.8 mph - N/A   Overcast
7:55 PM 43.2 °F 39.7 °F 42.6 °F 98% 30.18 in 10.0 mi Variable 5.8 mph - 0.01 in   Overcast
7:59 PM 42.8 °F 39.3 °F 42.8 °F 100% 30.18 in 10.0 mi Variable 5.8 mph - N/A   Overcast
8:51 PM 42.8 °F 41.1 °F 42.8 °F 100% 30.19 in 10.0 mi Variable 3.5 mph - N/A   Light Drizzle
8:55 PM 43.2 °F 39.7 °F 42.4 °F 97% 30.19 in 9.0 mi Variable 5.8 mph - 0.00 in   Light Drizzle
9:14 PM 42.8 °F 38.6 °F 42.8 °F 100% 30.19 in 10.0 mi Variable 6.9 mph - N/A   Overcast
9:28 PM 42.8 °F 38.6 °F 42.8 °F 100% 30.19 in 10.0 mi Variable 6.9 mph - N/A   Light Drizzle
9:38 PM 42.8 °F 40.1 °F 42.8 °F 100% 30.19 in 10.0 mi Variable 4.6 mph - N/A   Overcast
9:48 PM 42.8 °F 38.0 °F 42.8 °F 100% 30.18 in 10.0 mi North 8.1 mph - N/A   Overcast
9:50 PM 42.8 °F 39.3 °F 42.8 °F 100% 30.18 in 10.0 mi Variable 5.8 mph - N/A Rain Light Rain
9:55 PM 43.7 °F 40.3 °F 41.9 °F 93% 30.19 in 8.0 mi Variable 5.8 mph - 0.01 in Rain Rain
10:07 PM 44.6 °F 41.4 °F 41.0 °F 87% 30.19 in 10.0 mi Variable 5.8 mph - N/A   Overcast
10:55 PM 44.1 °F 42.5 °F 41.0 °F 89% 30.17 in 10.0 mi Variable 3.5 mph - 0.00 in   Overcast
11:55 PM 43.9 °F - 42.4 °F 95% 30.15 in 10.0 mi Calm Calm - N/A   Overcast